SCOUT X-4 R/B, 1358

Orbit data source: Space-Track

SCOUT X-4 R/B, 1358 is space debris in LEO originally from a launch on Thu, 29 Apr 1965 UTC launched from the Wallops Island (WLPIS). Debris objects in space refer to the collection of defunct objects orbiting the Earth. Examples of debris include non-operational satellites, rocket bodies, and fragments generated from explosions, collisions, or faulty payload assembly.

Loading next visibility...
Identifier
1358, 1965-032B
Orbit
LEO
Last TLE update
9 hours ago
Origin
Manufacturer
ABL
Mission
Spacecraft
Bus & Motor
ALTAIR, Unknown motor
Mass
33 kg wet, 33 kg dry
Launch date (UTC)
1965-04-29 (60 years ago)
Launch vehicle
Unknown
Launch site
Wallops Island (WLPIS)
Object type
Payload
Rocket body
Debris
Shape & HBR
Cyl, 1.5 m
Radar Cross Section
0.687 m², Medium (>0.1 m² and < 1m²)

Expand to show TLE details & history

TLE from 9 hours ago
0 SCOUT X-4 R/B
1 01358U 65032B   25182.52690251 -.00000051  00000-0  45312-4 0  9997
2 01358  41.1899 126.4134 0245029 202.8380 156.1317 13.38219927940694
Epoch: 2025-07-01T12:38Z
TLE epoch observation values (Epoch: 2025-07-01T12:38:44.376Z)
Latitude
-0.00006°
Longitude
16.90735°
Altitude
1,284.137 km
Speed
7.134 km/s
True Right ascension
08h 25m 39s
True Declination
0° 00' 00"
Sunlit
Object was in daylight at epoch
Visualization orbit readout
Latitude
29.06101°
Longitude
54.45381°
Altitude
1,285.195 km
Speed
7.136 km/s
Apparent Right ascension
13h 34m 19s
Apparent Declination
-7° 32' 29"
Sunlit
Object is in daylight
Visualization observer readout
Local Sidereal Time
09:31:16
Azimuth
115.432° SE
Elevation
16.688°
Doppler factor
1
Orbital elements
Apogee altitude
1,301.655 km
Perigee altitude
934.301 km
Semi-major axis
7,496.115 km
Eccentricity
0.0245
Inclination
41.1899°
RAAN
126.4134°
Arg. of periapsis
202.838°
True anomaly
Unknown
Mean anomaly
156.1317°
Eccentric anomaly
Unknown
Mean motion
3.34417 °/min
Orbital period
107.65 mins
BSTAR
0.000045312
Loading maneuver chart data...
Loading SW <> Apogee altitude chart data...
Loading historical data...
Loading historical data...
Loading historical data...
Loading historical data...
Loading historical data...
Loading historical data...
Loading historical data...
Other satellites on launch #32 in the year 1965 (1965-04-29 UTC)

SCOUT X-4 R/B Visibility forecast

Observer location: undefined°, undefined°

Span
Click to sort rows by Start time (UTC) header in descending order
Start Az.
Max El. time (UTC)
Max El. Az.
Max El.
End time (UTC)
End Az.
14 mins2025-07-01 23:34:57.207Z222.572° SW2025-07-01 23:41:57.207Z144.827° SSE38.705°2025-07-01 23:48:57.207Z78.188° E
14 mins2025-07-02 01:28:57.207Z259.461° W2025-07-02 01:35:57.207Z61.066° ENE44.793°2025-07-02 01:42:57.207Z80.007° E
13 mins2025-07-02 03:23:57.207Z280.181° WNW2025-07-02 03:29:57.207Z45.19° ENE44.937°2025-07-02 03:36:57.207Z99.729° ESE
12 mins2025-07-02 05:17:57.207Z278.321° WNW2025-07-02 05:23:57.207Z197.352° SSW37.777°2025-07-02 05:29:57.207Z135.723° SSE
5 mins2025-07-02 07:13:57.207Z246.368° WSW2025-07-02 07:15:57.207Z227.534° WSW14.645°2025-07-02 07:18:57.207Z198.846° SSW
5 mins2025-07-02 21:02:57.207Z148.226° SSE2025-07-02 21:04:57.207Z132.76° SE13.433°2025-07-02 21:07:57.207Z110.192° ESE
|